This demonstration page uses our WeatherBlox Daily Observations layout. Learn more.

38.89511, -77.03637

Hourly Observations for September 8, 2019

Temp ( °F °C ) Dew Point ( °F °C ) Humidity (%) Winds ( mph kmh ) Pressure ( in mb ) Visibility ( mi km ) Precip ( " mm )
12:52 am 00:52 Partly Cloudy 71 21.7 58 14.4 63 63 SSE 3 6 29.97 1015 10 16.09344 0 0
1:52 am 01:52 Mostly Cloudy 69 20.6 57 13.9 66 66 WSW 5 7 29.97 1015 10 16.09344 0 0
2:52 am 02:52 Mostly Cloudy 69 20.6 57 13.9 66 66 SSW 5 7 29.97 1015 10 16.09344 0 0
3:52 am 03:52 Partly Cloudy 69 20.6 58 14.4 68 68 SSW 3 6 29.97 1015 10 16.09344 0 0
4:52 am 04:52 Partly Cloudy 66 18.9 57 13.9 73 73 SW 5 7 29.97 1015 10 16.09344 0 0
5:52 am 05:52 Partly Cloudy 66 18.9 57 13.9 73 73 SW 5 7 30 1016 10 16.09344 0 0
6:52 am 06:52 Partly Cloudy 65 18.3 57 13.9 76 76 SW 5 7 30.03 1017 10 16.09344 0 0
7:52 am 07:52 Mostly Cloudy 69 20.6 57 13.9 66 66 SW 3 6 30.06 1018 10 16.09344 0 0
8:52 am 08:52 Mostly Cloudy 73 22.8 60 15.6 64 64 NNE 5 7 30.09 1019 10 16.09344 0 0
9:52 am 09:52 Mostly Cloudy 77 25 58 14.4 52 52 N 8 13 30.09 1019 10 16.09344 0 0
10:52 am 10:52 Mostly Cloudy 78 25.6 56 13.3 47 47 N 3 6 30.06 1018 10 16.09344 0 0
11:52 am 11:52 Partly Cloudy 80 26.7 57 13.9 45 45 N 8 13 30.06 1018 10 16.09344 0 0
12:52 pm 12:52 Partly Cloudy 82 27.8 56 13.3 41 41 NNE 8 13 30.06 1018 10 16.09344 0 0
1:52 pm 13:52 Mostly Cloudy 82 27.8 56 13.3 41 41 N 7 11 30.06 1018 10 16.09344 0 0
2:52 pm 14:52 Mostly Cloudy 83 28.3 56 13.3 40 40 NNE 6 9 30.03 1017 10 16.09344 0 0
3:52 pm 15:52 Mostly Cloudy 83 28.3 57 13.9 41 41 NNW 7 11 30.03 1017 10 16.09344 0 0
4:52 pm 16:52 Mostly Cloudy 83 28.3 57 13.9 41 41 N 5 7 30.03 1017 10 16.09344 0 0
5:52 pm 17:52 Mostly Cloudy 83 28.3 58 14.4 43 43 NNW 8 13 30.03 1017 10 16.09344 0 0
6:52 pm 18:52 Partly Cloudy 80 26.7 61 16.1 52 52 ESE 8 13 30.06 1018 10 16.09344 0 0
7:52 pm 19:52 Mostly Cloudy 78 25.6 61 16.1 56 56 ESE 6 9 30.06 1018 10 16.09344 0 0
8:52 pm 20:52 Partly Cloudy 77 25 60 15.6 56 56 SE 8 13 30.09 1019 10 16.09344 0 0
9:52 pm 21:52 Mostly Clear 75 23.9 61 16.1 62 62 SE 5 7 30.09 1019 10 16.09344 0 0
10:52 pm 22:52 Mostly Cloudy 74 23.3 60 15.6 62 62 Calm 30.09 1019 10 16.09344 0 0
11:52 pm 23:52 Mostly Cloudy 75 23.9 60 15.6 60 60 Calm 30.09 1019 10 16.09344 0 0

Powered by AerisWeather